This demonstration page uses our WeatherBlox Daily Observations layout. Learn more.

Left ArrowRight Arrow

36.19886, -115.1175

Hourly Observations for December 6, 2020

Temp ( °F °C ) Dew Point ( °F °C ) Humidity (%) Winds ( mph kmh ) Pressure ( in mb ) Visibility ( mi km ) Precip ( " mm )
12:53 am 00:53 Clear 42 5.6 8 -13.3 24 24 NW 3 6 30.32 1027 9 14 N/A
1:53 am 01:53 Clear 42 5.6 9 -12.8 25 25 W 6 9 30.32 1027 10 16 N/A
2:53 am 02:53 Clear 39 3.9 10 -12.2 30 30 WNW 8 13 30.33 1027 10 16 N/A
3:53 am 03:53 Clear 44 6.7 -1 -18.3 15 15 NW 8 13 30.31 1027 10 16 N/A
4:53 am 04:53 Clear 39 3.9 4 -15.6 23 23 S 3 6 30.32 1027 10 16 N/A
5:53 am 05:53 Clear 39 3.9 7 -13.9 26 26 WNW 6 9 30.34 1027 10 16 N/A
6:53 am 06:53 Sunny 37 2.8 9 -12.8 31 31 WNW 7 11 30.35 1028 10 16 N/A
7:53 am 07:53 Sunny 41 5 9 -12.8 27 27 WNW 3 6 30.36 1028 10 16 N/A
8:53 am 08:53 Sunny 49 9.4 7 -13.9 18 18 N N/A 30.35 1028 10 16 N/A
9:53 am 09:53 Sunny 52 11.1 4 -15.6 14 14 N N/A 30.35 1028 10 16 N/A
10:53 am 10:53 Sunny 56 13.3 5 -15 13 13 N N/A 30.32 1027 10 16 N/A
11:53 am 11:53 Sunny 58 14.4 5 -15 12 12 ESE 5 7 30.28 1026 10 16 N/A
12:53 pm 12:53 Sunny 59 15 3 -16.1 10 10 N N/A 30.25 1024 10 16 N/A
1:53 pm 13:53 Sunny 60 15.6 3 -16.1 10 10 N N/A 30.22 1023 10 16 N/A
2:53 pm 14:53 Sunny 60 15.6 3 -16.1 10 10 SE 3 6 30.20 1023 10 16 N/A
3:53 pm 15:53 Sunny 59 15 4 -15.6 11 11 S 3 6 30.19 1022 10 16 N/A
4:53 pm 16:53 Clear 58 14.4 7 -13.9 13 13 S 3 6 30.20 1023 10 16 N/A
5:53 pm 17:53 Clear 54 12.2 9 -12.8 16 16 WNW 3 6 30.20 1023 10 16 N/A
6:53 pm 18:53 Clear 52 11.1 12 -11.1 20 20 NW 6 9 30.22 1023 10 16 N/A
7:53 pm 19:53 Clear 51 10.6 12 -11.1 21 21 N N/A 30.22 1024 10 16 N/A
8:53 pm 20:53 Clear 48 8.9 12 -11.1 23 23 W 3 6 30.22 1023 10 16 N/A
9:53 pm 21:53 Clear 48 8.9 12 -11.1 23 23 WNW 5 7 30.21 1023 10 16 N/A
10:53 pm 22:53 Clear 49 9.4 14 -10 25 25 N N/A 30.21 1023 10 16 N/A
11:53 pm 23:53 Clear 49 9.4 13 -10.6 23 23 N N/A 30.19 1022 10 16 N/A

Powered by AerisWeather